Time,TemperatureF,DewpointF,PressureIn,WindDirection,WindDirectionDegrees,WindSpeedMPH,WindSpeedGustMPH,Humidity,HourlyPrecipIn,Conditions,Clouds,dailyrainin,SolarRadiationWatts/m^2,SoftwareType,DateUTC
2013-05-02 00:03:00,48.0,39.0,-100.00,ENE,73,3.0,5.0,71,0.00,,,0.00,0.000000,,2013-05-02 04:03:00,
2013-05-02 00:10:00,47.0,38.0,-100.00,ESE,122,3.0,5.0,72,0.00,,,0.00,0.000000,,2013-05-02 04:10:00,
2013-05-02 00:33:00,47.0,38.0,-100.00,ESE,122,3.0,5.0,72,0.00,,,0.00,0.000000,,2013-05-02 04:33:00,
2013-05-02 00:43:00,47.0,38.0,-100.00,ESE,122,3.0,5.0,72,0.00,,,0.00,0.000000,,2013-05-02 04:43:00,
2013-05-02 00:52:00,47.0,38.0,-100.00,ESE,122,3.0,5.0,72,0.00,,,0.00,0.000000,,2013-05-02 04:52:00,
2013-05-02 01:02:00,47.0,38.0,-100.00,ESE,122,3.0,5.0,72,0.00,,,0.00,0.000000,,2013-05-02 05:02:00,
2013-05-02 01:10:00,46.0,39.0,-100.00,ENE,68,3.0,6.0,77,0.00,,,0.00,0.000000,,2013-05-02 05:10:00,
2013-05-02 01:32:00,46.0,39.0,-100.00,ENE,68,3.0,6.0,77,0.00,,,0.00,0.000000,,2013-05-02 05:32:00,
2013-05-02 01:42:00,46.0,39.0,-100.00,ENE,68,3.0,6.0,77,0.00,,,0.00,0.000000,,2013-05-02 05:42:00,
2013-05-02 01:52:00,46.0,39.0,-100.00,ENE,68,3.0,6.0,77,0.00,,,0.00,0.000000,,2013-05-02 05:52:00,
2013-05-02 02:01:00,46.0,39.0,-100.00,ENE,68,3.0,6.0,77,0.00,,,0.00,0.000000,,2013-05-02 06:01:00,
2013-05-02 04:10:00,45.0,40.0,-100.00,NE,36,3.0,5.0,81,-99.99,,,0.00,0.000000,,2013-05-02 08:10:00,
2013-05-02 04:42:00,45.0,40.0,-100.00,NE,36,3.0,5.0,81,-99.99,,,0.00,0.000000,,2013-05-02 08:42:00,
2013-05-02 04:52:00,45.0,40.0,-100.00,NE,36,3.0,5.0,81,-99.99,,,0.00,0.000000,,2013-05-02 08:52:00,
2013-05-02 05:02:00,45.0,40.0,-100.00,NE,36,3.0,5.0,81,-99.99,,,0.00,0.000000,,2013-05-02 09:02:00,
2013-05-02 05:10:00,45.0,39.0,-100.00,North,5,4.0,6.0,78,0.00,,,0.00,0.000000,,2013-05-02 09:10:00,
2013-05-02 05:43:00,45.0,39.0,-100.00,North,5,4.0,6.0,78,0.00,,,0.00,0.000000,,2013-05-02 09:43:00,
2013-05-02 05:52:00,45.0,39.0,-100.00,North,5,4.0,6.0,78,0.00,,,0.00,0.000000,,2013-05-02 09:52:00,
2013-05-02 06:03:00,45.0,39.0,-100.00,North,5,4.0,6.0,78,0.00,,,0.00,0.000000,,2013-05-02 10:03:00,
2013-05-02 06:10:00,46.0,40.0,-100.00,North,6,3.0,5.0,79,0.00,,,0.00,3.000000,,2013-05-02 10:10:00,
2013-05-02 06:33:00,46.0,40.0,-100.00,North,6,3.0,5.0,79,0.00,,,0.00,3.000000,,2013-05-02 10:33:00,
2013-05-02 06:42:00,46.0,40.0,-100.00,North,6,3.0,5.0,79,0.00,,,0.00,3.000000,,2013-05-02 10:42:00,
2013-05-02 06:53:00,46.0,40.0,-100.00,North,6,3.0,5.0,79,0.00,,,0.00,3.000000,,2013-05-02 10:53:00,
2013-05-02 07:02:00,46.0,40.0,-100.00,North,6,3.0,5.0,79,0.00,,,0.00,3.000000,,2013-05-02 11:02:00,
2013-05-02 07:10:00,51.0,43.0,-100.00,North,11,2.0,5.0,74,0.00,,,0.00,73.000000,,2013-05-02 11:10:00,
2013-05-02 07:32:00,51.0,43.0,-100.00,North,11,2.0,5.0,74,0.00,,,0.00,73.000000,,2013-05-02 11:32:00,
2013-05-02 07:42:00,51.0,43.0,-100.00,North,11,2.0,5.0,74,0.00,,,0.00,73.000000,,2013-05-02 11:42:00,
2013-05-02 07:52:00,51.0,43.0,-100.00,North,11,2.0,5.0,74,0.00,,,0.00,73.000000,,2013-05-02 11:52:00,
2013-05-02 08:01:00,51.0,43.0,-100.00,North,11,2.0,5.0,74,0.00,,,0.00,73.000000,,2013-05-02 12:01:00,
2013-05-02 09:10:00,57.0,43.0,-100.00,East,93,4.0,7.0,59,-99.99,,,0.00,490.000000,,2013-05-02 13:10:00,
2013-05-02 09:42:00,57.0,43.0,-100.00,East,93,4.0,7.0,59,-99.99,,,0.00,490.000000,,2013-05-02 13:42:00,
2013-05-02 09:52:00,57.0,43.0,-100.00,East,93,4.0,7.0,59,-99.99,,,0.00,490.000000,,2013-05-02 13:52:00,
2013-05-02 10:02:00,57.0,43.0,-100.00,East,93,4.0,7.0,59,-99.99,,,0.00,490.000000,,2013-05-02 14:02:00,
2013-05-02 10:10:00,61.0,41.0,-100.00,East,94,4.0,10.0,48,0.00,,,0.00,718.000000,,2013-05-02 14:10:00,
2013-05-02 10:43:00,61.0,41.0,-100.00,East,94,4.0,10.0,48,0.00,,,0.00,718.000000,,2013-05-02 14:43:00,
2013-05-02 10:52:00,61.0,41.0,-100.00,East,94,4.0,10.0,48,0.00,,,0.00,718.000000,,2013-05-02 14:52:00,
2013-05-02 11:02:00,61.0,41.0,-100.00,East,94,4.0,10.0,48,0.00,,,0.00,718.000000,,2013-05-02 15:02:00,
2013-05-02 11:10:00,63.0,41.0,-100.00,SSE,154,7.0,11.0,44,0.00,,,0.00,877.000000,,2013-05-02 15:10:00,
2013-05-02 11:33:00,63.0,41.0,-100.00,SSE,154,7.0,11.0,44,0.00,,,0.00,877.000000,,2013-05-02 15:33:00,
2013-05-02 11:43:00,63.0,41.0,-100.00,SSE,154,7.0,11.0,44,0.00,,,0.00,877.000000,,2013-05-02 15:43:00,
2013-05-02 12:03:00,63.0,41.0,-100.00,SSE,154,7.0,11.0,44,0.00,,,0.00,877.000000,,2013-05-02 16:03:00,
2013-05-02 12:10:00,65.0,39.0,-100.00,SSE,157,7.0,13.0,39,0.00,,,0.00,1002.000000,,2013-05-02 16:10:00,
2013-05-02 12:32:00,65.0,39.0,-100.00,SSE,157,7.0,13.0,39,0.00,,,0.00,1002.000000,,2013-05-02 16:32:00,
2013-05-02 12:43:00,65.0,39.0,-100.00,SSE,157,7.0,13.0,39,0.00,,,0.00,1002.000000,,2013-05-02 16:43:00,
2013-05-02 12:52:00,65.0,39.0,-100.00,SSE,157,7.0,13.0,39,0.00,,,0.00,1002.000000,,2013-05-02 16:52:00,
2013-05-02 13:02:00,65.0,39.0,-100.00,SSE,157,7.0,13.0,39,0.00,,,0.00,1002.000000,,2013-05-02 17:02:00,
2013-05-02 13:10:00,68.0,41.0,-100.00,South,181,5.0,14.0,38,0.00,,,0.00,1070.000000,,2013-05-02 17:10:00,
2013-05-02 13:32:00,68.0,41.0,-100.00,South,181,5.0,14.0,38,0.00,,,0.00,1070.000000,,2013-05-02 17:32:00,
2013-05-02 13:42:00,68.0,41.0,-100.00,South,181,5.0,14.0,38,0.00,,,0.00,1070.000000,,2013-05-02 17:42:00,
2013-05-02 13:52:00,68.0,41.0,-100.00,South,181,5.0,14.0,38,0.00,,,0.00,1070.000000,,2013-05-02 17:52:00,
2013-05-02 14:01:00,68.0,41.0,-100.00,South,181,5.0,14.0,38,0.00,,,0.00,1070.000000,,2013-05-02 18:01:00,
2013-05-02 14:10:00,69.0,42.0,-100.00,ESE,112,6.0,13.0,37,0.00,,,-99.99,1063.000000,,2013-05-02 18:10:00,
2013-05-02 14:42:00,69.0,42.0,-100.00,ESE,112,6.0,13.0,37,0.00,,,-99.99,1063.000000,,2013-05-02 18:42:00,
2013-05-02 14:52:00,69.0,42.0,-100.00,ESE,112,6.0,13.0,37,0.00,,,-99.99,1063.000000,,2013-05-02 18:52:00,
2013-05-02 15:01:00,69.0,42.0,-100.00,ESE,112,6.0,13.0,37,0.00,,,-99.99,1063.000000,,2013-05-02 19:01:00,
2013-05-02 15:10:00,71.0,42.0,-100.00,SSE,153,6.0,14.0,35,0.00,,,0.00,986.000000,,2013-05-02 19:10:00,
2013-05-02 15:32:00,71.0,42.0,-100.00,SSE,153,6.0,14.0,35,0.00,,,0.00,986.000000,,2013-05-02 19:32:00,
2013-05-02 15:42:00,71.0,42.0,-100.00,SSE,153,6.0,14.0,35,0.00,,,0.00,986.000000,,2013-05-02 19:42:00,
2013-05-02 15:52:00,71.0,42.0,-100.00,SSE,153,6.0,14.0,35,0.00,,,0.00,986.000000,,2013-05-02 19:52:00,
2013-05-02 16:02:00,71.0,42.0,-100.00,SSE,153,6.0,14.0,35,0.00,,,0.00,986.000000,,2013-05-02 20:02:00,
2013-05-02 16:10:00,71.0,42.0,-100.00,SE,137,7.0,12.0,35,0.00,,,0.00,856.000000,,2013-05-02 20:10:00,
2013-05-02 16:42:00,71.0,42.0,-100.00,SE,137,7.0,12.0,35,0.00,,,0.00,856.000000,,2013-05-02 20:42:00,
2013-05-02 16:52:00,71.0,42.0,-100.00,SE,137,7.0,12.0,35,0.00,,,0.00,856.000000,,2013-05-02 20:52:00,
2013-05-02 17:01:00,71.0,42.0,-100.00,SE,137,7.0,12.0,35,0.00,,,0.00,856.000000,,2013-05-02 21:01:00,
2013-05-02 17:10:00,70.0,40.0,-100.00,SE,140,7.0,12.0,34,0.00,,,0.00,686.000000,,2013-05-02 21:10:00,
2013-05-02 17:42:00,70.0,40.0,-100.00,SE,140,7.0,12.0,34,0.00,,,0.00,686.000000,,2013-05-02 21:42:00,
2013-05-02 17:53:00,70.0,40.0,-100.00,SE,140,7.0,12.0,34,0.00,,,0.00,686.000000,,2013-05-02 21:53:00,
2013-05-02 18:03:00,70.0,40.0,-100.00,SE,140,7.0,12.0,34,0.00,,,0.00,686.000000,,2013-05-02 22:03:00,
2013-05-02 18:10:00,69.0,38.0,-100.00,SSE,150,6.0,12.0,32,0.00,,,0.00,475.000000,,2013-05-02 22:10:00,
2013-05-02 18:42:00,69.0,38.0,-100.00,SSE,150,6.0,12.0,32,0.00,,,0.00,475.000000,,2013-05-02 22:42:00,
2013-05-02 18:53:00,69.0,38.0,-100.00,SSE,150,6.0,12.0,32,0.00,,,0.00,475.000000,,2013-05-02 22:53:00,
2013-05-02 19:02:00,69.0,38.0,-100.00,SSE,150,6.0,12.0,32,0.00,,,0.00,475.000000,,2013-05-02 23:02:00,
2013-05-02 19:10:00,67.0,37.0,-100.00,SSE,168,5.0,10.0,33,0.00,,,0.00,198.000000,,2013-05-02 23:10:00,
2013-05-02 19:32:00,67.0,37.0,-100.00,SSE,168,5.0,10.0,33,0.00,,,0.00,198.000000,,2013-05-02 23:32:00,
2013-05-02 19:42:00,67.0,37.0,-100.00,SSE,168,5.0,10.0,33,0.00,,,0.00,198.000000,,2013-05-02 23:42:00,
2013-05-02 19:52:00,67.0,37.0,-100.00,SSE,168,5.0,10.0,33,0.00,,,0.00,198.000000,,2013-05-02 23:52:00,
2013-05-02 20:01:00,67.0,37.0,-100.00,SSE,168,5.0,10.0,33,0.00,,,0.00,198.000000,,2013-05-03 00:01:00,
2013-05-02 21:10:00,61.0,36.0,-100.00,SSW,205,3.0,5.0,40,-99.99,,,0.00,0.000000,,2013-05-03 01:10:00,
2013-05-02 21:32:00,61.0,36.0,-100.00,SSW,205,3.0,5.0,40,-99.99,,,0.00,0.000000,,2013-05-03 01:32:00,
2013-05-02 21:42:00,61.0,36.0,-100.00,SSW,205,3.0,5.0,40,-99.99,,,0.00,0.000000,,2013-05-03 01:42:00,
2013-05-02 21:52:00,61.0,36.0,-100.00,SSW,205,3.0,5.0,40,-99.99,,,0.00,0.000000,,2013-05-03 01:52:00,
2013-05-02 22:02:00,61.0,36.0,-100.00,SSW,205,3.0,5.0,40,-99.99,,,0.00,0.000000,,2013-05-03 02:02:00,
2013-05-02 22:10:00,59.0,35.0,-100.00,South,173,3.0,5.0,41,0.00,,,0.00,0.000000,,2013-05-03 02:10:00,
2013-05-02 22:32:00,59.0,35.0,-100.00,South,173,3.0,5.0,41,0.00,,,0.00,0.000000,,2013-05-03 02:32:00,
2013-05-02 22:42:00,59.0,35.0,-100.00,South,173,3.0,5.0,41,0.00,,,0.00,0.000000,,2013-05-03 02:42:00,
2013-05-02 22:52:00,59.0,35.0,-100.00,South,173,3.0,5.0,41,0.00,,,0.00,0.000000,,2013-05-03 02:52:00,
2013-05-02 23:01:00,59.0,35.0,-100.00,South,173,3.0,5.0,41,0.00,,,0.00,0.000000,,2013-05-03 03:01:00,
2013-05-02 23:10:00,57.0,35.0,-100.00,SSE,149,4.0,6.0,44,0.00,,,0.00,0.000000,,2013-05-03 03:10:00,
2013-05-02 23:33:00,57.0,35.0,-100.00,SSE,149,4.0,6.0,44,0.00,,,0.00,0.000000,,2013-05-03 03:33:00,
2013-05-02 23:43:00,57.0,35.0,-100.00,SSE,149,4.0,6.0,44,0.00,,,0.00,0.000000,,2013-05-03 03:43:00,
2013-05-02 23:53:00,57.0,35.0,-100.00,SSE,149,4.0,6.0,44,0.00,,,0.00,0.000000,,2013-05-03 03:53:00,